{"data":{"norad_id":69206,"epoch":"2026-09-19T22:37:35.841216Z","epoch_age_seconds":75106,"freshness":"FRESH","line1":"1 69206U 26114AA  26262.94277594  .00013139  00000+0  39923-3 0  9997","line2":"2 69206  53.1571 116.0970 0000526 112.2098 247.8960 15.34405004 19368","mean_motion":15.34405004,"eccentricity":5.26e-5,"inclination_deg":53.1571,"raan_deg":116.097,"arg_perigee_deg":112.2098,"mean_anomaly_deg":247.896,"bstar":0.00039923,"rev_number":1936,"period_min":93.847452025124,"perigee_km":462.32853989066,"apogee_km":463.0481947193,"semimajor_km":6840.825367305,"source":"CELESTRAK","updated_at":"2026-09-20T09:00:44.100658Z"}}